Home   Weather   37°49'S, 145°11'E   Past weeks
Flag for Australia

Past Weather in 37°49'S, 145°11'E, Australia — Yesterday and Last 2 Weeks

Now
54 °F

Sprinkles. Partly cloudy.


Feels Like: 51 °F
Forecast: 59 / 49 °F
Wind: 9 mph from West

Location: Melbourne Airport

Current Time: Oct 16, 2019 at 11:44:32 pm

Latest Report: Oct 16, 2019 at 11:00 pm


Visibility: N/A

Pressure: 29.80 "Hg

Humidity: 88%

Dew Point: 50 °F

Location of 37°49'S, 145°11'ELocation

Past Weather in 37°49'S, 145°11'E — Graph

°F

37°49'S, 145°11'E Temperature Yesterday

Maximum temperature yesterday: 64 °F (at 2:00 pm)
Minimum temperature yesterday: 52 °F (at 4:00 am)
Average temperature yesterday: 57 °F

High & Low Weather Summary for the Past Weeks

 TemperatureHumidityPressure
High84 °F (Oct 3, 1:11 pm)100% (Oct 5, 3:00 am)30.33 "Hg (Oct 5, 3:00 am)
Low43 °F (Oct 9, 5:00 am)17% (Oct 2, 2:00 pm)29.59 "Hg (Oct 6, 8:12 am)
Average57 °F68%30.05 "Hg
* Reported Oct 1 9:00 pm — Oct 16 10:30 pm, 37°49'S, 145°11'E. Weather by CustomWeather, © 2019

Note: Actual official high and low records may vary slightly from our data, if they occured in-between our weather recording intervals... More about our weather records

Advertising

37°49'S, 145°11'E Weather History for the Previous 24 Hours

Scroll right to see more
 ConditionsComfort  
Time TempWeatherWind HumidityBarometerVisibility
10:30 pm
Wed, Oct 16
54 °FScattered showers. Passing clouds.7 mph88%29.80 "HgN/A
10:00 pm52 °FPassing clouds.6 mph94%29.80 "HgN/A
9:30 pm54 °FPassing clouds.6 mph88%29.80 "HgN/A
9:00 pm54 °FPartly cloudy.8 mph94%29.80 "HgN/A
8:30 pm57 °FPassing clouds.8 mph88%29.80 "HgN/A
8:00 pm57 °FScattered showers. Passing clouds.6 mph88%29.80 "HgN/A
7:30 pm55 °FScattered showers. Broken clouds.5 mph94%29.80 "HgN/A
7:00 pm55 °FScattered showers. Broken clouds.7 mph94%29.77 "HgN/A
6:30 pm55 °FSprinkles. Broken clouds.14 mph94%29.77 "Hg5 mi
6:05 pm57 °FThunderstorms. Scattered clouds.3 mph94%29.74 "Hg4 mi
5:30 pm59 °FScattered showers. Partly sunny.8 mph82%29.74 "HgN/A
5:00 pm57 °FSprinkles. Partly sunny.9 mph82%29.74 "HgN/A
4:30 pm59 °FSprinkles. Broken clouds.21 mph72%29.74 "Hg6 mi
4:00 pm63 °FScattered showers. Partly sunny.13 mph64%29.74 "HgN/A
3:30 pm66 °FBroken clouds.10 mph49%29.74 "HgN/A
3:00 pm66 °FPartly sunny.13 mph49%29.77 "HgN/A
2:30 pm66 °FBroken clouds.13 mph52%29.77 "HgN/A
1:30 pm66 °FBroken clouds.16 mph52%29.77 "HgN/A
1:00 pm63 °FPartly sunny.12 mph68%29.80 "HgN/A
12:30 pm61 °FPartly sunny.9 mph68%29.80 "HgN/A
12:00 pm61 °FPartly sunny.10 mph68%29.83 "HgN/A
11:00 am57 °FPartly sunny.9 mph77%29.83 "HgN/A
10:30 am57 °FBroken clouds.10 mph77%29.86 "HgN/A
10:00 am57 °FLight rain. Clear.8 mph77%29.86 "HgN/A
9:30 am55 °FLight rain. Clear.6 mph88%29.86 "HgN/A
9:00 am55 °FLight rain. Clear.6 mph82%29.86 "HgN/A
8:00 am54 °FSunny.No wind88%29.86 "Hg10 mi
7:30 am54 °FSunny.3 mph88%29.86 "Hg10 mi
7:00 am52 °FLight rain. Clear.5 mph94%29.86 "HgN/A
6:30 am52 °FSprinkles. Clear.3 mph94%29.86 "HgN/A
6:00 am52 °FClear.2 mph94%29.86 "Hg10 mi
5:30 am52 °FPartly cloudy.5 mph94%29.86 "HgN/A
5:00 am54 °FPartly cloudy.5 mph88%29.86 "HgN/A
4:30 am52 °FPassing clouds.5 mph94%29.86 "HgN/A
4:00 am52 °FPartly cloudy.3 mph94%29.86 "HgN/A
3:30 am54 °FPartly cloudy.No wind82%29.89 "HgN/A
3:00 am54 °FPassing clouds.No wind82%29.89 "HgN/A
2:30 am54 °FPassing clouds.No wind88%29.89 "HgN/A
2:00 am54 °FPartly cloudy.6 mph88%29.92 "HgN/A
1:30 am54 °FPartly cloudy.5 mph82%29.92 "HgN/A
1:00 am55 °FPassing clouds.8 mph72%29.92 "HgN/A
12:30 am55 °FPartly cloudy.8 mph82%29.92 "HgN/A
12:00 am55 °FPartly cloudy.6 mph82%29.92 "HgN/A
11:30 pm
Tue, Oct 15
55 °FPassing clouds.8 mph77%29.92 "HgN/A
11:00 pm55 °FPartly cloudy.8 mph82%29.95 "HgN/A
Weather by CustomWeather, © 2019

See weather overview